|
NORAD ID: 29325 Int'l Code: 1989-039AG
Perigee: 421.5 km
Apogee: 17,874.3 km
Inclination: 64.9 °
Period: 320.7 minutes
Semi major axis: 15518 km
Launch date: May 31, 1989
Source: Commonwealth of Independent States (former USSR) (CIS)
Note: This is SATELLITE DEBRIS
Two Line Element Set (TLE):
1 29325U 89039AG 13144.67177487 .00000320 00000-0 30027-3 0 1341
2 29325 064.9083 001.0118 5623060 325.1748 308.4575 04.49067245109953
Source:
NASA's NSSDC Master Catalog entry for SL-12 DEB
|